Location: Newark
(2.6153°S, 29.9989°E)
Time: 00:35:30
(UTC+00:00)

N. Korean satellite - Pass Details

Date: 23 August 2019
Orbit: 455 x 509 km, 97.2° (Epoch: 20 September)

Event Time Altitude Azimuth Distance (km) Brightness Sun altitude
Rises 02:54:44 0° 37° (NE) 2,492 11.0 -17.2°
Reaches altitude 10° 02:57:16 10° 57° (ENE) 1,611 10.3 -16.6°
Maximum altitude 02:59:39 18° 101° (ESE) 1,212 9.5 -16.0°
Drops below altitude 10° 03:02:02 10° 145° (SE) 1,603 9.5 -15.4°
Sets 03:04:32 0° 165° (SSE) 2,475 10.2 -14.8°
